BAW582 EGLL-LIMC

Flight info

Callsign BAW582
Flight time 1h 55m
Altitude 37000
Route MODMI M185 MID L612 BOGNA UL612 VEULE DCT TEPRI UN491 POGZI DCT GELTA DCT LUVAL DCT SHARA DCT DEVDI DCT BASGO/N0433F290 Z424 AKASU/N0365F190 Z424 RIXUV
Aircraft A320/M-SDE3FGHIRWY/LB1

Departure

Time 2026-05-05 18:25
Airport London Heathrow Airport (EGLL)

Arrival

Time 2026-05-05 20:21
Airport Milan Malpensa International Airport (LIMC)
Time Latitude Longitude Altitude Speed Heading
2026-05-05 17:47 51.46931 -0.48573 88 ft 0 kts 360°
2026-05-05 18:16 51.46911 -0.48574 88 ft 3 kts 12°
2026-05-05 18:17 51.46887 -0.48589 89 ft 3 kts 45°
2026-05-05 18:17 51.46877 -0.48619 88 ft 1 kts 89°
2026-05-05 18:17 51.46877 -0.48626 87 ft 0 kts 89°
2026-05-05 18:22 51.46877 -0.48617 88 ft 4 kts 89°
2026-05-05 18:22 51.46878 -0.48543 87 ft 9 kts 89°
2026-05-05 18:22 51.46842 -0.48468 88 ft 9 kts 175°
2026-05-05 18:23 51.46775 -0.48470 86 ft 11 kts 180°
2026-05-05 18:23 51.46696 -0.48471 86 ft 12 kts 180°
2026-05-05 18:23 51.46647 -0.48471 86 ft 4 kts 179°
2026-05-05 18:23 51.46637 -0.48471 86 ft 5 kts 179°
2026-05-05 18:24 51.46577 -0.48470 86 ft 10 kts 179°
2026-05-05 18:24 51.46515 -0.48468 86 ft 8 kts 176°
2026-05-05 18:24 51.46481 -0.48405 88 ft 9 kts 101°
2026-05-05 18:24 51.46482 -0.48242 89 ft 36 kts 87°
2026-05-05 18:25 51.46501 -0.47479 89 ft 101 kts 90°
2026-05-05 18:25 51.46499 -0.46528 91 ft 136 kts 90°
2026-05-05 18:25 51.46504 -0.44146 361 ft 170 kts 90°
2026-05-05 18:25 51.46429 -0.42272 1021 ft 170 kts 94°
2026-05-05 18:26 51.46009 -0.40477 1579 ft 183 kts 120°
2026-05-05 18:26 51.45247 -0.38697 1857 ft 206 kts 128°
2026-05-05 18:26 51.43976 -0.37410 2165 ft 231 kts 159°
2026-05-05 18:26 51.42405 -0.36540 2741 ft 243 kts 160°
2026-05-05 18:27 51.40746 -0.35818 3322 ft 259 kts 175°
2026-05-05 18:27 51.38931 -0.36286 3990 ft 271 kts 204°
2026-05-05 18:27 51.37216 -0.37634 4898 ft 275 kts 207°
2026-05-05 18:27 51.35486 -0.39017 5667 ft 280 kts 207°
2026-05-05 18:28 51.31986 -0.41793 5997 ft 281 kts 207°
2026-05-05 18:28 51.30226 -0.43174 6001 ft 282 kts 207°
2026-05-05 18:28 51.28462 -0.44555 6025 ft 283 kts 207°
2026-05-05 18:29 51.26685 -0.45947 6786 ft 284 kts 207°
2026-05-05 18:29 51.24906 -0.47358 7691 ft 286 kts 207°
2026-05-05 18:29 51.23112 -0.48788 8566 ft 289 kts 207°
2026-05-05 18:29 51.21303 -0.50215 9404 ft 292 kts 207°
2026-05-05 18:30 51.19463 -0.51648 10157 ft 298 kts 207°
2026-05-05 18:30 51.17527 -0.53150 10418 ft 321 kts 206°
2026-05-05 18:30 51.15452 -0.54755 10707 ft 339 kts 206°
2026-05-05 18:30 51.13304 -0.56410 11329 ft 345 kts 206°
2026-05-05 18:31 51.11130 -0.58082 11993 ft 350 kts 206°
2026-05-05 18:31 51.08884 -0.59522 12630 ft 354 kts 195°
2026-05-05 18:31 51.06441 -0.60108 13318 ft 357 kts 180°
2026-05-05 18:31 51.04005 -0.59723 13969 ft 358 kts 166°
2026-05-05 18:32 51.01631 -0.58356 14589 ft 360 kts 152°
2026-05-05 18:32 50.99593 -0.56318 15163 ft 362 kts 145°
2026-05-05 18:32 50.97450 -0.54017 15766 ft 365 kts 145°
2026-05-05 18:32 50.95329 -0.51744 16349 ft 369 kts 145°
2026-05-05 18:33 50.93191 -0.49460 16815 ft 372 kts 145°
2026-05-05 18:33 50.91043 -0.47178 16930 ft 373 kts 145°
2026-05-05 18:33 50.88879 -0.44887 17255 ft 376 kts 146°
2026-05-05 18:33 50.86696 -0.42580 17872 ft 378 kts 145°
2026-05-05 18:34 50.84495 -0.40255 18417 ft 382 kts 145°
2026-05-05 18:34 50.82269 -0.37904 18931 ft 385 kts 145°
2026-05-05 18:34 50.80038 -0.35548 19458 ft 388 kts 145°
2026-05-05 18:34 50.77780 -0.33162 19979 ft 391 kts 145°
2026-05-05 18:35 50.75511 -0.30765 20480 ft 395 kts 145°
2026-05-05 18:35 50.73219 -0.28347 20954 ft 398 kts 146°
2026-05-05 18:35 50.70907 -0.25912 21436 ft 401 kts 146°
2026-05-05 18:35 50.68580 -0.23466 21899 ft 404 kts 146°
2026-05-05 18:36 50.66232 -0.21002 22368 ft 407 kts 146°
2026-05-05 18:36 50.63882 -0.18533 22838 ft 409 kts 145°
2026-05-05 18:36 50.61505 -0.16033 23319 ft 412 kts 145°
2026-05-05 18:36 50.59108 -0.13518 23726 ft 414 kts 146°
2026-05-05 18:37 50.56728 -0.11032 24165 ft 416 kts 146°
2026-05-05 18:37 50.54315 -0.08521 24572 ft 417 kts 146°
2026-05-05 18:37 50.51888 -0.05997 24998 ft 418 kts 146°
2026-05-05 18:37 50.49453 -0.03468 25417 ft 420 kts 146°
2026-05-05 18:38 50.48877 -0.02871 25518 ft 420 kts 146°
2026-05-05 18:38 50.47251 -0.01185 25793 ft 421 kts 146°
2026-05-05 18:38 50.44806 0.01347 26264 ft 420 kts 146°
2026-05-05 18:38 50.42371 0.03871 26726 ft 420 kts 146°
2026-05-05 18:39 50.39935 0.06393 27152 ft 420 kts 146°
2026-05-05 18:39 50.37497 0.08914 27590 ft 421 kts 146°
2026-05-05 18:39 50.35046 0.11445 28022 ft 422 kts 146°
2026-05-05 18:39 50.32603 0.13967 28442 ft 423 kts 146°
2026-05-05 18:40 50.30688 0.15945 28741 ft 424 kts 146°
2026-05-05 18:40 50.30066 0.16587 28840 ft 425 kts 147°
2026-05-05 18:40 50.27583 0.19149 29201 ft 427 kts 147°
2026-05-05 18:40 50.25102 0.21704 29561 ft 429 kts 147°
2026-05-05 18:41 50.22601 0.24272 29919 ft 431 kts 147°
2026-05-05 18:41 50.20100 0.26831 30294 ft 431 kts 147°
2026-05-05 18:41 50.17598 0.29393 30777 ft 428 kts 146°
2026-05-05 18:41 50.15143 0.31913 31267 ft 426 kts 146°
2026-05-05 18:42 50.12692 0.34430 31723 ft 424 kts 146°
2026-05-05 18:42 50.10219 0.36972 32171 ft 423 kts 146°
2026-05-05 18:42 50.07768 0.39491 32618 ft 422 kts 146°
2026-05-05 18:42 50.05317 0.42005 33059 ft 421 kts 146°
2026-05-05 18:43 50.02880 0.44496 33506 ft 420 kts 146°
2026-05-05 18:43 50.00456 0.46967 33971 ft 417 kts 146°
2026-05-05 18:43 49.98039 0.49426 34422 ft 414 kts 146°
2026-05-05 18:43 49.95635 0.51873 34748 ft 414 kts 146°
2026-05-05 18:44 49.93223 0.54328 34978 ft 416 kts 146°
2026-05-05 18:44 49.90786 0.56805 35235 ft 417 kts 146°
2026-05-05 18:44 49.88356 0.59271 35505 ft 418 kts 147°
2026-05-05 18:44 49.85984 0.61873 35767 ft 418 kts 140°
2026-05-05 18:45 49.83877 0.65018 35951 ft 421 kts 133°
2026-05-05 18:45 49.81903 0.68380 36210 ft 422 kts 133°
2026-05-05 18:45 49.79927 0.71746 36416 ft 424 kts 133°
2026-05-05 18:45 49.77943 0.75122 36673 ft 424 kts 133°
2026-05-05 18:46 49.75955 0.78496 36848 ft 424 kts 134°
2026-05-05 18:46 49.73948 0.81884 36895 ft 429 kts 133°
2026-05-05 18:46 49.69875 0.88732 36895 ft 434 kts 133°
2026-05-05 18:47 49.66461 0.94470 36885 ft 437 kts 133°
2026-05-05 18:47 49.61703 1.02461 36881 ft 436 kts 133°
2026-05-05 18:48 49.58271 1.08227 36866 ft 435 kts 133°
2026-05-05 18:48 49.54174 1.15075 36867 ft 435 kts 133°
2026-05-05 18:49 49.50076 1.21900 36866 ft 435 kts 133°
2026-05-05 18:49 49.45963 1.28726 36850 ft 436 kts 133°
2026-05-05 18:50 49.43870 1.32192 36853 ft 436 kts 134°
2026-05-05 18:50 49.40002 1.38589 36863 ft 436 kts 134°
2026-05-05 18:51 49.35854 1.45426 36872 ft 436 kts 134°
2026-05-05 18:51 49.31744 1.52188 36871 ft 436 kts 134°
2026-05-05 18:52 49.27604 1.58990 36863 ft 436 kts 134°
2026-05-05 18:52 49.23462 1.65780 36855 ft 436 kts 134°
2026-05-05 18:53 49.19316 1.72557 36857 ft 436 kts 134°
2026-05-05 18:53 49.15162 1.79310 36847 ft 436 kts 134°
2026-05-05 18:54 49.12274 1.83989 36845 ft 436 kts 134°
2026-05-05 18:54 49.11224 1.85689 36849 ft 436 kts 134°
2026-05-05 18:55 49.07060 1.92441 36851 ft 436 kts 134°
2026-05-05 18:55 49.02927 1.99119 36840 ft 436 kts 134°
2026-05-05 18:56 48.98753 2.05853 36845 ft 437 kts 134°
2026-05-05 18:56 48.94568 2.12579 36845 ft 437 kts 134°
2026-05-05 18:57 48.90371 2.19300 36840 ft 437 kts 134°
2026-05-05 18:57 48.86185 2.25994 36832 ft 438 kts 134°
2026-05-05 18:58 48.81989 2.32696 36833 ft 438 kts 134°
2026-05-05 18:58 48.77794 2.39387 36840 ft 438 kts 134°
2026-05-05 18:59 48.73572 2.46093 36839 ft 438 kts 134°
2026-05-05 18:59 48.69351 2.52762 36841 ft 438 kts 134°
2026-05-05 19:00 48.65128 2.59419 36814 ft 438 kts 134°
2026-05-05 19:00 48.60930 2.66016 36808 ft 439 kts 135°
2026-05-05 19:01 48.57097 2.73241 36804 ft 441 kts 120°
2026-05-05 19:01 48.55839 2.77472 36800 ft 443 kts 109°
2026-05-05 19:01 48.55099 2.81995 36798 ft 445 kts 99°
2026-05-05 19:02 48.54710 2.91279 36805 ft 447 kts 94°
2026-05-05 19:02 48.54391 3.00650 36797 ft 448 kts 94°
2026-05-05 19:03 48.54059 3.10033 36795 ft 449 kts 95°
2026-05-05 19:03 48.53721 3.19466 36795 ft 450 kts 95°
2026-05-05 19:04 48.53380 3.28895 36797 ft 450 kts 95°
2026-05-05 19:04 48.53037 3.38334 36804 ft 451 kts 95°
2026-05-05 19:05 48.52686 3.47769 36795 ft 451 kts 95°
2026-05-05 19:05 48.52327 3.57196 36799 ft 451 kts 95°
2026-05-05 19:06 48.51957 3.66652 36807 ft 452 kts 95°
2026-05-05 19:06 48.51571 3.76109 36810 ft 452 kts 95°
2026-05-05 19:07 48.51182 3.85568 36817 ft 452 kts 95°
2026-05-05 19:07 48.50788 3.94967 36820 ft 452 kts 95°
2026-05-05 19:08 48.50093 4.04350 36816 ft 449 kts 106°
2026-05-05 19:08 48.48442 4.13434 36820 ft 449 kts 107°
2026-05-05 19:09 48.46787 4.22518 36818 ft 449 kts 107°
2026-05-05 19:09 48.45130 4.31602 36811 ft 449 kts 107°
2026-05-05 19:10 48.43457 4.40680 36811 ft 450 kts 108°
2026-05-05 19:10 48.41777 4.49763 36818 ft 450 kts 108°
2026-05-05 19:11 48.40094 4.58837 36822 ft 450 kts 108°
2026-05-05 19:11 48.38409 4.67852 36821 ft 450 kts 108°
2026-05-05 19:12 48.36690 4.76969 36818 ft 450 kts 108°
2026-05-05 19:12 48.34981 4.86030 36819 ft 451 kts 108°
2026-05-05 19:13 48.33265 4.95090 36825 ft 451 kts 108°
2026-05-05 19:13 48.31537 5.04152 36837 ft 451 kts 108°
2026-05-05 19:14 48.29806 5.13154 36840 ft 451 kts 108°
2026-05-05 19:14 48.28028 5.22266 36826 ft 452 kts 109°
2026-05-05 19:15 48.26225 5.31232 36838 ft 452 kts 109°
2026-05-05 19:15 48.24386 5.40262 36853 ft 452 kts 109°
2026-05-05 19:16 48.22562 5.49285 36858 ft 452 kts 109°
2026-05-05 19:16 48.20724 5.58313 36840 ft 452 kts 110°
2026-05-05 19:17 48.18880 5.67324 36849 ft 453 kts 110°
2026-05-05 19:17 48.17027 5.76340 36851 ft 453 kts 110°
2026-05-05 19:18 48.15163 5.85352 36850 ft 453 kts 110°
2026-05-05 19:18 48.13299 5.94345 36851 ft 453 kts 110°
2026-05-05 19:19 48.11433 6.03347 36841 ft 453 kts 110°
2026-05-05 19:19 48.09548 6.12334 36843 ft 453 kts 110°
2026-05-05 19:20 48.07552 6.21280 36848 ft 453 kts 112°
2026-05-05 19:20 48.05359 6.30094 36856 ft 452 kts 114°
2026-05-05 19:21 48.03128 6.38892 36850 ft 453 kts 114°
2026-05-05 19:21 48.00937 6.47733 36863 ft 454 kts 113°
2026-05-05 19:22 47.98764 6.56582 36866 ft 455 kts 113°
2026-05-05 19:22 47.96571 6.65435 36870 ft 455 kts 114°
2026-05-05 19:23 47.94361 6.74273 36876 ft 455 kts 114°
2026-05-05 19:23 47.92143 6.83134 36870 ft 456 kts 114°
2026-05-05 19:24 47.89930 6.91973 36890 ft 456 kts 114°
2026-05-05 19:24 47.87693 7.00840 36891 ft 456 kts 114°
2026-05-05 19:25 47.85451 7.09667 36891 ft 456 kts 114°
2026-05-05 19:25 47.83198 7.18489 36891 ft 455 kts 114°
2026-05-05 19:26 47.80952 7.27293 36877 ft 455 kts 114°
2026-05-05 19:26 47.78706 7.36092 36882 ft 455 kts 114°
2026-05-05 19:27 47.76437 7.44874 36890 ft 455 kts 116°
2026-05-05 19:27 47.75015 7.49031 36889 ft 449 kts 127°
2026-05-05 19:27 47.73174 7.52659 36898 ft 443 kts 136°
2026-05-05 19:28 47.68411 7.58220 36872 ft 433 kts 156°
2026-05-05 19:28 47.62938 7.61866 36880 ft 431 kts 160°
2026-05-05 19:29 47.57441 7.65420 36889 ft 431 kts 160°
2026-05-05 19:29 47.51933 7.68970 36890 ft 432 kts 160°
2026-05-05 19:30 47.46429 7.72518 36900 ft 431 kts 160°
2026-05-05 19:30 47.41856 7.75462 36907 ft 431 kts 160°
2026-05-05 19:31 47.36348 7.78999 36918 ft 432 kts 160°
2026-05-05 19:31 47.30833 7.82510 36925 ft 432 kts 161°
2026-05-05 19:32 47.25316 7.86029 36930 ft 432 kts 161°
2026-05-05 19:32 47.19799 7.89533 36931 ft 432 kts 160°
2026-05-05 19:33 47.14299 7.93020 36938 ft 432 kts 161°
2026-05-05 19:33 47.08779 7.96523 36835 ft 433 kts 161°
2026-05-05 19:34 47.06022 7.98268 36584 ft 432 kts 161°
2026-05-05 19:34 47.03264 8.00011 36323 ft 431 kts 161°
2026-05-05 19:34 47.00509 8.01747 36070 ft 431 kts 161°
2026-05-05 19:35 46.94990 8.05206 35571 ft 431 kts 161°
2026-05-05 19:35 46.92239 8.06932 35328 ft 431 kts 161°
2026-05-05 19:35 46.89486 8.08660 35080 ft 431 kts 161°
2026-05-05 19:35 46.86729 8.10389 34834 ft 431 kts 162°
2026-05-05 19:36 46.83980 8.12113 34593 ft 430 kts 162°
2026-05-05 19:36 46.81228 8.13837 34363 ft 430 kts 162°
2026-05-05 19:36 46.78484 8.15559 33916 ft 430 kts 163°
2026-05-05 19:36 46.75726 8.17287 33274 ft 429 kts 163°
2026-05-05 19:37 46.73002 8.18994 32806 ft 425 kts 163°
2026-05-05 19:37 46.70310 8.20678 32295 ft 420 kts 163°
2026-05-05 19:37 46.67638 8.22346 31797 ft 416 kts 163°
2026-05-05 19:37 46.64982 8.23996 31289 ft 412 kts 163°
2026-05-05 19:38 46.62368 8.25617 30787 ft 409 kts 163°
2026-05-05 19:38 46.59764 8.27232 30313 ft 405 kts 164°
2026-05-05 19:38 46.57167 8.28840 29776 ft 402 kts 163°
2026-05-05 19:38 46.54611 8.30422 29263 ft 397 kts 163°
2026-05-05 19:39 46.52092 8.31982 28937 ft 392 kts 163°
2026-05-05 19:39 46.47065 8.35084 28948 ft 392 kts 163°
2026-05-05 19:39 46.44542 8.36634 28015 ft 398 kts 163°
2026-05-05 19:40 46.41963 8.38216 27060 ft 404 kts 162°
2026-05-05 19:40 46.39387 8.39799 26454 ft 400 kts 162°
2026-05-05 19:40 46.36849 8.41365 26056 ft 392 kts 162°
2026-05-05 19:40 46.34389 8.42886 25975 ft 378 kts 162°
2026-05-05 19:41 46.31975 8.44372 25849 ft 374 kts 163°
2026-05-05 19:41 46.29628 8.45810 25553 ft 366 kts 163°
2026-05-05 19:41 46.27245 8.47029 25323 ft 351 kts 172°
2026-05-05 19:41 46.24902 8.47610 24580 ft 347 kts 180°
2026-05-05 19:42 46.22481 8.47923 23965 ft 351 kts 179°
2026-05-05 19:42 46.20049 8.48249 23495 ft 350 kts 179°
2026-05-05 19:42 46.17620 8.48588 22969 ft 349 kts 178°
2026-05-05 19:42 46.15180 8.48933 22490 ft 347 kts 178°
2026-05-05 19:43 46.12815 8.49275 22016 ft 345 kts 178°
2026-05-05 19:43 46.10453 8.49883 21509 ft 347 kts 168°
2026-05-05 19:43 46.08170 8.51053 20982 ft 348 kts 164°
2026-05-05 19:43 46.05914 8.52277 20483 ft 345 kts 164°
2026-05-05 19:44 46.03666 8.53492 20009 ft 344 kts 164°
2026-05-05 19:44 46.01431 8.54698 19529 ft 342 kts 164°
2026-05-05 19:44 45.99206 8.55898 19068 ft 341 kts 163°
2026-05-05 19:44 45.96986 8.57092 18585 ft 340 kts 164°
2026-05-05 19:45 45.94775 8.58279 18144 ft 338 kts 164°
2026-05-05 19:45 45.92604 8.59445 17971 ft 327 kts 164°
2026-05-05 19:45 45.90517 8.60613 17814 ft 318 kts 159°
2026-05-05 19:45 45.88628 8.62262 17515 ft 319 kts 147°
2026-05-05 19:46 45.86897 8.64267 17148 ft 318 kts 146°
2026-05-05 19:46 45.85179 8.66248 16777 ft 315 kts 148°
2026-05-05 19:46 45.83395 8.68015 16159 ft 310 kts 151°
2026-05-05 19:46 45.81593 8.69694 15479 ft 308 kts 152°
2026-05-05 19:47 45.79790 8.71328 14846 ft 306 kts 152°
2026-05-05 19:47 45.77992 8.72946 14226 ft 304 kts 152°
2026-05-05 19:47 45.76213 8.74551 13608 ft 302 kts 151°
2026-05-05 19:47 45.74449 8.76150 13099 ft 298 kts 151°
2026-05-05 19:48 45.72691 8.77743 12971 ft 299 kts 151°
2026-05-05 19:48 45.70934 8.79338 12852 ft 298 kts 151°
2026-05-05 19:48 45.69185 8.80927 12500 ft 297 kts 150°
2026-05-05 19:48 45.67448 8.82508 12156 ft 295 kts 150°
2026-05-05 19:49 45.65720 8.84081 11863 ft 292 kts 150°
2026-05-05 19:49 45.64595 8.85108 11780 ft 286 kts 150°
2026-05-05 19:49 45.62387 8.87090 11604 ft 274 kts 155°
2026-05-05 19:49 45.60640 8.88010 11415 ft 264 kts 171°
2026-05-05 19:50 45.58843 8.88491 11140 ft 262 kts 172°
2026-05-05 19:50 45.57072 8.88963 10863 ft 261 kts 172°
2026-05-05 19:50 45.55272 8.89446 10583 ft 259 kts 172°
2026-05-05 19:50 45.53526 8.89920 10310 ft 258 kts 171°
2026-05-05 19:51 45.51742 8.90407 10033 ft 257 kts 171°
2026-05-05 19:51 45.49996 8.90883 9839 ft 253 kts 171°
2026-05-05 19:51 45.48312 8.91346 9705 ft 245 kts 171°
2026-05-05 19:51 45.46658 8.91802 9572 ft 238 kts 171°
2026-05-05 19:52 45.45059 8.92239 9448 ft 230 kts 171°
2026-05-05 19:52 45.43517 8.92657 9190 ft 221 kts 171°
2026-05-05 19:52 45.42011 8.93064 8799 ft 220 kts 171°
2026-05-05 19:52 45.40510 8.93470 8542 ft 219 kts 171°
2026-05-05 19:53 45.39019 8.93876 8288 ft 218 kts 171°
2026-05-05 19:53 45.37537 8.94278 8023 ft 216 kts 171°
2026-05-05 19:53 45.36061 8.94677 7764 ft 215 kts 171°
2026-05-05 19:53 45.34589 8.94997 7502 ft 213 kts 184°
2026-05-05 19:54 45.33226 8.94342 7256 ft 209 kts 218°
2026-05-05 19:54 45.32403 8.92681 6975 ft 210 kts 252°
2026-05-05 19:54 45.32159 8.90619 6588 ft 214 kts 262°
2026-05-05 19:54 45.32041 8.88505 6240 ft 216 kts 263°
2026-05-05 19:55 45.31938 8.86383 5976 ft 214 kts 264°
2026-05-05 19:55 45.31837 8.84276 5993 ft 215 kts 264°
2026-05-05 19:55 45.31735 8.82148 6003 ft 216 kts 264°
2026-05-05 19:55 45.31633 8.80020 6006 ft 216 kts 264°
2026-05-05 19:56 45.31530 8.77886 6007 ft 216 kts 264°
2026-05-05 19:56 45.31429 8.75781 6009 ft 216 kts 264°
2026-05-05 19:56 45.31325 8.73646 6010 ft 218 kts 264°
2026-05-05 19:56 45.31220 8.71488 6008 ft 220 kts 264°
2026-05-05 19:57 45.30914 8.69385 6007 ft 216 kts 239°
2026-05-05 19:57 45.30293 8.68272 6007 ft 213 kts 217°
2026-05-05 19:57 45.28522 8.67160 5635 ft 212 kts 195°
2026-05-05 19:57 45.27128 8.66639 5329 ft 212 kts 194°
2026-05-05 19:58 45.25698 8.66131 5035 ft 212 kts 193°
2026-05-05 19:58 45.24269 8.65624 4761 ft 211 kts 194°
2026-05-05 19:58 45.22855 8.65123 4489 ft 209 kts 194°
2026-05-05 19:58 45.21438 8.64617 4190 ft 209 kts 193°
2026-05-05 19:59 45.20030 8.64112 4019 ft 208 kts 194°
2026-05-05 19:59 45.18617 8.63605 4001 ft 211 kts 194°
2026-05-05 19:59 45.17195 8.63095 4002 ft 211 kts 194°
2026-05-05 19:59 45.15771 8.62587 3980 ft 211 kts 194°
2026-05-05 20:00 45.14347 8.62081 3980 ft 211 kts 194°
2026-05-05 20:00 45.12927 8.61576 3981 ft 211 kts 193°
2026-05-05 20:00 45.11503 8.61072 3980 ft 210 kts 193°
2026-05-05 20:00 45.10099 8.60573 3980 ft 211 kts 193°
2026-05-05 20:01 45.08660 8.60061 3983 ft 211 kts 193°
2026-05-05 20:01 45.07254 8.59611 3978 ft 210 kts 184°
2026-05-05 20:01 45.05851 8.60028 3980 ft 210 kts 149°
2026-05-05 20:01 45.04887 8.61543 3980 ft 212 kts 114°
2026-05-05 20:02 45.04729 8.63606 3980 ft 217 kts 78°
2026-05-05 20:02 45.05455 8.65461 3981 ft 221 kts 43°
2026-05-05 20:02 45.06802 8.66495 3982 ft 222 kts 18°
2026-05-05 20:02 45.08263 8.67224 3975 ft 223 kts 32°
2026-05-05 20:03 45.09316 8.68771 3980 ft 220 kts 66°
2026-05-05 20:03 45.09560 8.70852 3980 ft 215 kts 102°
2026-05-05 20:03 45.09146 8.72881 3983 ft 215 kts 112°
2026-05-05 20:03 45.08608 8.74852 3982 ft 215 kts 113°
2026-05-05 20:04 45.08051 8.76809 3981 ft 215 kts 114°
2026-05-05 20:04 45.07492 8.78765 3981 ft 214 kts 114°
2026-05-05 20:04 45.06932 8.80718 3981 ft 215 kts 114°
2026-05-05 20:04 45.06371 8.82679 3981 ft 214 kts 114°
2026-05-05 20:05 45.05812 8.84632 3976 ft 215 kts 114°
2026-05-05 20:05 45.05259 8.86593 3979 ft 215 kts 116°
2026-05-05 20:05 45.04355 8.88213 3978 ft 211 kts 149°
2026-05-05 20:05 45.02985 8.88801 3983 ft 206 kts 178°
2026-05-05 20:06 45.01552 8.88791 3982 ft 206 kts 183°
2026-05-05 20:06 45.00122 8.88692 3982 ft 206 kts 184°
2026-05-05 20:06 44.98692 8.88578 3978 ft 206 kts 184°
2026-05-05 20:06 44.97261 8.88461 3978 ft 206 kts 184°
2026-05-05 20:07 44.95833 8.88400 3977 ft 206 kts 173°
2026-05-05 20:07 44.94539 8.89221 3978 ft 209 kts 138°
2026-05-05 20:07 44.93825 8.90998 3979 ft 215 kts 103°
2026-05-05 20:07 44.93974 8.93107 3978 ft 222 kts 67°
2026-05-05 20:08 44.94963 8.94771 3976 ft 226 kts 32°
2026-05-05 20:08 44.96425 8.95610 3977 ft 229 kts 16°
2026-05-05 20:08 44.97962 8.96191 3976 ft 229 kts 14°
2026-05-05 20:08 44.99510 8.96735 3976 ft 229 kts 14°
2026-05-05 20:09 45.01062 8.97252 3985 ft 229 kts
2026-05-05 20:09 45.02634 8.97128 3982 ft 227 kts 342°
2026-05-05 20:09 45.04143 8.96463 3982 ft 226 kts 341°
2026-05-05 20:09 45.05641 8.95796 3981 ft 226 kts 341°
2026-05-05 20:10 45.07141 8.95125 3979 ft 226 kts 341°
2026-05-05 20:10 45.08639 8.94454 3981 ft 225 kts 341°
2026-05-05 20:10 45.10132 8.93787 3981 ft 225 kts 341°
2026-05-05 20:10 45.11619 8.93120 3981 ft 224 kts 341°
2026-05-05 20:11 45.13112 8.92450 3983 ft 225 kts 341°
2026-05-05 20:11 45.14600 8.91780 3981 ft 224 kts 341°
2026-05-05 20:11 45.16085 8.91109 3981 ft 224 kts 341°
2026-05-05 20:11 45.17573 8.90439 3982 ft 224 kts 341°
2026-05-05 20:12 45.19060 8.89771 3981 ft 224 kts 341°
2026-05-05 20:12 45.20552 8.89100 3981 ft 225 kts 341°
2026-05-05 20:12 45.21541 8.88654 3985 ft 224 kts 341°
2026-05-05 20:12 45.23024 8.87986 3982 ft 223 kts 342°
2026-05-05 20:13 45.24502 8.87320 3980 ft 222 kts 342°
2026-05-05 20:13 45.25972 8.86658 3999 ft 222 kts 342°
2026-05-05 20:13 45.27441 8.85996 4000 ft 221 kts 342°
2026-05-05 20:13 45.28911 8.85332 4001 ft 222 kts 342°
2026-05-05 20:14 45.30384 8.84665 4002 ft 222 kts 342°
2026-05-05 20:14 45.31851 8.83998 4003 ft 221 kts 342°
2026-05-05 20:14 45.33318 8.83331 4004 ft 221 kts 342°
2026-05-05 20:14 45.34790 8.82663 4005 ft 222 kts 342°
2026-05-05 20:15 45.36259 8.81996 4005 ft 222 kts 342°
2026-05-05 20:15 45.37727 8.81327 4006 ft 222 kts 342°
2026-05-05 20:15 45.39190 8.80660 4007 ft 217 kts 342°
2026-05-05 20:15 45.40587 8.80025 4001 ft 207 kts 342°
2026-05-05 20:16 45.41940 8.79349 4008 ft 205 kts 342°
2026-05-05 20:16 45.43319 8.78812 4005 ft 205 kts 347°
2026-05-05 20:16 45.44714 8.78394 3992 ft 205 kts 349°
2026-05-05 20:16 45.46113 8.78005 3810 ft 204 kts 349°
2026-05-05 20:17 45.47501 8.77624 3559 ft 203 kts 349°
2026-05-05 20:17 45.48883 8.77244 3322 ft 200 kts 349°
2026-05-05 20:17 45.50215 8.76878 3040 ft 189 kts 350°
2026-05-05 20:17 45.51486 8.76528 2792 ft 184 kts 350°
2026-05-05 20:18 45.52745 8.76183 2539 ft 183 kts 350°
2026-05-05 20:18 45.53981 8.75842 2305 ft 176 kts 351°
2026-05-05 20:18 45.55105 8.75532 2069 ft 156 kts 351°
2026-05-05 20:18 45.56138 8.75247 1863 ft 148 kts 351°
2026-05-05 20:19 45.57137 8.74973 1665 ft 145 kts 350°
2026-05-05 20:19 45.58114 8.74704 1457 ft 141 kts 350°
2026-05-05 20:19 45.59056 8.74444 1267 ft 139 kts 349°
2026-05-05 20:19 45.59995 8.74192 1092 ft 137 kts 349°
2026-05-05 20:20 45.60927 8.73932 924 ft 136 kts 348°
2026-05-05 20:20 45.61854 8.73673 752 ft 135 kts 349°
2026-05-05 20:20 45.62653 8.73459 747 ft 94 kts 349°
2026-05-05 20:20 45.63143 8.73312 744 ft 61 kts 349°
2026-05-05 20:21 45.63500 8.73214 748 ft 42 kts 347°
2026-05-05 20:21 45.63745 8.73033 750 ft 36 kts 317°
2026-05-05 20:21 45.63853 8.72831 749 ft 16 kts 304°
2026-05-05 20:21 45.63890 8.72753 749 ft 9 kts 304°
2026-05-05 20:22 45.63927 8.72664 752 ft 12 kts 287°
2026-05-05 20:22 45.63878 8.72587 752 ft 13 kts 178°
2026-05-05 20:22 45.63781 8.72612 750 ft 15 kts 169°
2026-05-05 20:22 45.63669 8.72643 752 ft 18 kts 169°
2026-05-05 20:23 45.63535 8.72681 752 ft 21 kts 168°
2026-05-05 20:23 45.63412 8.72667 750 ft 18 kts 233°
2026-05-05 20:23 45.63391 8.72490 751 ft 20 kts 258°
2026-05-05 20:23 45.63362 8.72301 747 ft 22 kts 259°
2026-05-05 20:24 45.63337 8.72120 749 ft 11 kts 258°
2026-05-05 20:24 45.63325 8.72035 749 ft 0 kts 258°
2026-05-05 20:24 45.63323 8.72025 750 ft 3 kts 257°
2026-05-05 20:25 45.63295 8.71975 750 ft 10 kts 205°
2026-05-05 20:25 45.63218 8.71983 750 ft 12 kts 170°
2026-05-05 20:25 45.63124 8.72006 750 ft 15 kts 170°
2026-05-05 20:25 45.63014 8.72035 748 ft 17 kts 169°
2026-05-05 20:26 45.62886 8.72073 751 ft 20 kts 168°
2026-05-05 20:26 45.62743 8.72116 750 ft 18 kts 169°
2026-05-05 20:26 45.62676 8.72029 751 ft 16 kts 261°
2026-05-05 20:26 45.62655 8.71864 753 ft 18 kts 259°
2026-05-05 20:27 45.62632 8.71699 753 ft 13 kts 259°
2026-05-05 20:27 45.62620 8.71611 751 ft 7 kts 259°
2026-05-05 20:27 45.62648 8.71568 751 ft 8 kts 358°
2026-05-05 20:27 45.62693 8.71559 749 ft 3 kts 349°
2026-05-05 20:28 45.62700 8.71557 751 ft 0 kts 349°